This is the latest recevied weather packets stored in our database for station/object 9D9-WX. If no packets are shown the sender has not sent any weather packets the latest 10 day(s).
| Time | Temp. | Humidity | Pressure | Rain* | Wind** | Luminosity | Snow |
|---|---|---|---|---|---|---|---|
| 1778101231 | 11.67° C | 32% | 985.5 hPa | 0 mm | - | - | - |
| 1778100311 | 11.67° C | 34% | 985.2 hPa | 0 mm | - | - | - |
| 1778099428 | 12.22° C | 34% | 984.7 hPa | 0 mm | - | - | - |
| 1778098514 | 11.67° C | 34% | 984.7 hPa | 0 mm | - | - | - |
| 1778097633 | 11.67° C | 34% | 984.2 hPa | 0 mm | - | - | - |
| 1778096715 | 11.67° C | 34% | 984.6 hPa | 0 mm | - | - | - |
| 1778095829 | 11.67° C | 34% | 984.6 hPa | 0 mm | - | - | - |
| 1778094915 | 12.22° C | 34% | 984.6 hPa | 0 mm | - | - | - |
| 1778094026 | 11.67° C | 34% | 984.6 hPa | 0 mm | - | - | - |
| 1778093114 | 11.67° C | 35% | 984.4 hPa | 0 mm | - | - | - |
| 1778092223 | 12.22° C | 34% | 984.4 hPa | 0 mm | - | - | - |
| 1778091314 | 12.22° C | 34% | 984.4 hPa | 0 mm | - | - | - |
| 1778090433 | 12.22° C | 34% | 984.4 hPa | 0 mm | - | - | - |
| 1778089512 | 12.22° C | 37% | 984.6 hPa | 0 mm | - | - | - |
| 1778088629 | 11.67° C | 35% | 985.2 hPa | 0 mm | - | - | - |
| 1778087715 | 11.67° C | 35% | 985.2 hPa | 0 mm | - | - | - |
| 1778086833 | 11.67° C | 36% | 985.3 hPa | 0 mm | - | - | - |
| 1778085915 | 11.67° C | 41% | 984.5 hPa | 0 mm | - | - | - |
| 1778085023 | 11.11° C | 41% | 984.5 hPa | 0 mm | - | - | - |
| 1778084115 | 10.56° C | 41% | 984.5 hPa | 0 mm | - | - | - |
| 1778083233 | 10.56° C | 41% | 984.5 hPa | 0 mm | - | - | - |
| 1778082314 | 10° C | 46% | 985.1 hPa | 0 mm | - | - | - |
| 1778081423 | 10° C | 47% | 984.5 hPa | 0 mm | - | - | - |
| 1778080515 | 9.44° C | 47% | 984.5 hPa | 0 mm | - | - | - |
| 1778079634 | 9.44° C | 47% | 984.5 hPa | 0 mm | - | - | - |
* Rain latest hour (hover to see other rain measurements)
** Current wind speed in m/s (hover to see current wind gust speed)